Location: Aytr�
(46.1357°N, 1.1145°W)
Time: 09:46:15
(UTC+00:00)

Tiangong - Pass Details

Date: 01 October 2021
Orbit: 382 x 385 km, 41.5° (Epoch: 15 October)

Event Time Altitude Azimuth Distance (km) Brightness Sun altitude
Exits shadow 05:22:33 10° 250° (WSW) 1,411 3.3 -7.8°
Reaches altitude 10° 05:22:35 10° 250° (WSW) 1,398 3.3 -7.8°
Maximum altitude 05:25:29 34° 183° (S) 650 2.2 -7.3°
Drops below altitude 10° 05:28:23 10° 116° (ESE) 1,396 5.0 -6.8°
Sets 05:30:33 0° 107° (ESE) 2,248 6.6 -6.5°
